FW7196 Weather Reports


time (UTC)temp
C
wind
direction
speed
KPH
gust
KPH
rain 1hr
cm
rain 24hr
cm
rain mn
cm
humidity
%
barometer
mb
20260901060044 13 0 0.0 0.0 0.00 0.00 0.00 94 1018.4
20260901054549 13 0 0.0 0.0 0.00 0.00 0.00 94 1018.5
20260901053052 13 0 0.0 0.0 0.00 0.00 0.00 94 1018.4
20260901051544 13 0 0.0 0.0 0.00 0.00 0.00 94 1018.6
20260901050045 13 0 0.0 0.0 0.00 0.00 0.00 93 1018.7
20260901044555 13 0 0.0 0.0 0.00 0.03 0.00 93 1018.6
20260901043045 13 0 0.0 0.0 0.00 0.03 0.00 93 1018.6
20260901041544 13 0 0.0 0.0 0.00 0.03 0.00 93 1018.3
20260901040049 13 0 0.0 0.0 0.00 0.03 0.00 92 1018.3
20260901034549 13 0 0.0 0.0 0.00 0.03 0.03 92 1018.4
20260901033056 13 0 0.0 0.0 0.00 0.03 0.03 91 1018.3
20260901031545 13 0 0.0 0.0 0.00 0.03 0.03 91 1018.3
20260901030047 13 0 0.0 0.0 0.00 0.03 0.03 91 1018.3
20260901024546 14 0 0.0 0.0 0.00 0.03 0.03 91 1018.2
20260901023048 14 0 0.0 0.0 0.00 0.03 0.03 90 1018.4
20260901021558 14 0 0.0 0.0 0.00 0.03 0.03 89 1018.4
20260901020045 15 0 0.0 0.0 0.00 0.03 0.03 88 1018.3
20260901014544 15 0 0.0 0.0 0.00 0.03 0.03 87 1018.2
20260901013051 15 0 0.0 0.0 0.00 0.03 0.03 86 1018.3
20260901011606 15 0 0.0 0.0 0.00 0.03 0.03 85 1018.3
20260901010043 16 0 0.0 0.0 0.00 0.03 0.03 84 1018.3
20260901004546 16 0 0.0 0.0 0.00 0.03 0.03 84 1018.4
20260901003049 16 0 0.0 0.0 0.00 0.03 0.03 84 1018.4
20260901001544 16 0 0.0 0.0 0.00 0.03 0.03 85 1018.3
20260901000045 17 63 0.0 0.0 0.00 0.03 0.03 83 1018.3
20260831234548 17 0 0.0 0.0 0.00 0.03 0.03 81 1018.3
20260831233048 18 0 0.0 0.0 0.00 0.03 0.03 79 1018.4
20260831231546 18 0 0.0 0.0 0.00 0.03 0.03 75 1018.4
20260831230053 19 0 0.0 0.0 0.00 0.03 0.03 71 1018.5
20260831224548 20 0 0.0 0.0 0.00 0.03 0.03 68 1018.7
20260831223047 20 0 0.0 0.0 0.00 0.03 0.03 64 1018.6
20260831221602 21 0 0.0 1.6 0.00 0.03 0.03 63 1018.6
20260831220047 21 0 0.0 3.2 0.00 0.03 0.03 62 1018.6
20260831214553 22 0 0.0 4.8 0.00 0.03 0.03 60 1018.6
20260831213045 22 113 0.0 3.2 0.00 0.03 0.03 59 1018.6
20260831211547 23 57 0.0 3.2 0.00 0.03 0.03 61 1018.4
20260831210048 23 255 0.0 3.2 0.00 0.03 0.03 59 1018.5
20260831204546 23 0 1.6 6.4 0.00 0.03 0.03 58 1018.5
20260831203056 23 229 1.6 4.8 0.00 0.03 0.03 60 1018.8
20260831201553 23 28 0.0 4.8 0.00 0.03 0.03 58 1018.8
20260831200053 23 166 0.0 4.8 0.00 0.03 0.03 60 1018.8
20260831194554 23 0 0.0 3.2 0.00 0.03 0.03 63 1018.9
20260831193049 23 0 0.0 8.0 0.00 0.03 0.03 61 1019.0
20260831191547 23 0 0.0 3.2 0.00 0.03 0.03 63 1019.1
20260831190057 23 0 0.0 4.8 0.00 0.03 0.03 58 1019.0
20260831184600 23 0 0.0 3.2 0.00 0.03 0.03 61 1019.1
20260831183044 23 0 0.0 4.8 0.00 0.03 0.03 57 1019.5
20260831181552 23 0 0.0 8.0 0.00 0.03 0.03 59 1019.6
20260831180100 22 0 0.0 6.4 0.00 0.03 0.03 55 1019.8
20260831174854 23 234 0.0 0.0 0.00 0.03 0.03 56 1019.8
20260831174545 22 0 0.0 4.8 0.00 0.03 0.03 58 1019.8
20260831173734 22 234 0.0 3.2 0.00 0.03 0.03 55 1019.8
20260831173218 22 353 0.0 0.0 0.00 0.03 0.03 59 1019.9
20260831173050 22 0 0.0 4.8 0.00 0.03 0.03 59 1020.0
20260831172703 22 5 0.0 0.0 0.00 0.03 0.03 62 1020.2
20260831171543 22 0 0.0 6.4 0.00 0.03 0.03 58 1020.4
20260831171540 22 279 0.0 4.8 0.00 0.03 0.03 58 1020.4
20260831171029 22 163 0.0 4.8 0.00 0.03 0.03 55 1020.3
20260831170529 22 35 0.0 0.0 0.00 0.03 0.03 65 1020.4
20260831170049 21 0 0.0 4.8 0.00 0.03 0.03 63 1020.5
20260831170017 21 245 0.0 0.0 0.00 0.03 0.03 63 1020.5
20260831164544 21 0 0.0 6.4 0.00 0.03 0.03 56 1020.7
20260831163043 21 0 0.0 4.8 0.00 0.03 0.03 64 1020.8
20260831161550 21 0 0.0 4.8 0.00 0.03 0.03 61 1020.9
20260831160047 21 353 0.0 4.8 0.00 0.03 0.03 65 1021.0
20260831154608 20 0 0.0 4.8 0.00 0.03 0.03 65 1021.1
20260831153054 20 240 0.0 4.8 0.00 0.03 0.03 69 1021.0
20260831151545 20 178 0.0 3.2 0.00 0.03 0.03 66 1020.9
20260831150045 18 0 0.0 3.2 0.00 0.03 0.03 74 1021.0
20260831144550 17 0 0.0 1.6 0.00 0.03 0.03 78 1021.0
20260831143044 16 0 0.0 3.2 0.00 0.03 0.03 84 1021.3
20260831142841 16 202 0.0 1.6 0.00 0.03 0.03 86 1021.2
20260831142334 16 7 0.0 0.0 0.00 0.03 0.03 89 1021.2
20260831141819 15 7 0.0 0.0 0.00 0.03 0.03 91 1021.2
20260831141546 15 0 0.0 3.2 0.00 0.03 0.03 92 1021.4
20260831141301 15 26 0.0 1.6 0.00 0.03 0.03 92 1021.3
20260831140755 15 301 0.0 1.6 0.00 0.03 0.03 93 1021.2
20260831140048 14 244 0.0 4.8 0.00 0.03 0.03 96 1021.3
20260831135619 14 195 0.0 0.0 0.00 0.03 0.03 97 1021.2
20260831134546 13 0 0.0 0.0 0.00 0.03 0.03 97 1021.1
20260831134504 14 195 0.0 0.0 0.00 0.03 0.03 97 1021.2
20260831134010 13 195 0.0 0.0 0.00 0.03 0.03 97 1021.2
20260831133517 13 195 0.0 0.0 0.00 0.03 0.03 97 1021.2
20260831133045 13 0 0.0 1.6 0.00 0.03 0.03 97 1021.3
20260831133017 13 195 0.0 0.0 0.00 0.03 0.03 97 1021.3
20260831132512 13 195 0.0 0.0 0.00 0.03 0.03 97 1021.3
20260831131952 13 195 0.0 0.0 0.00 0.03 0.03 97 1021.3
20260831131551 12 0 0.0 0.0 0.00 0.03 0.03 97 1021.4
20260831131438 13 195 0.0 0.0 0.00 0.03 0.03 97 1021.3
20260831130928 12 195 0.0 0.0 0.00 0.03 0.03 97 1021.5
20260831130415 12 195 0.0 0.0 0.00 0.03 0.03 97 1021.5
20260831130052 12 0 0.0 0.0 0.00 0.03 0.03 97 1021.5
20260831125914 12 195 0.0 0.0 0.00 0.03 0.03 97 1021.5
20260831124756 12 195 0.0 0.0 0.00 0.03 0.03 97 1021.6
20260831124549 12 0 0.0 3.2 0.00 0.03 0.03 97 1021.6
20260831124255 12 195 0.0 1.6 0.00 0.03 0.03 97 1021.5
20260831123739 12 195 0.0 1.6 0.00 0.03 0.03 97 1021.5
20260831123221 12 195 0.0 0.0 0.00 0.03 0.03 97 1021.5
20260831123041 12 0 0.0 3.2 0.00 0.03 0.03 97 1021.4
20260831122720 12 195 0.0 1.6 0.00 0.03 0.03 97 1021.4
20260831122218 12 195 0.0 1.6 0.00 0.03 0.03 97 1021.3
20260831121706 12 166 0.0 0.0 0.00 0.03 0.03 97 1021.3
20260831121545 12 0 0.0 1.6 0.00 0.03 0.03 97 1021.4
20260831121155 12 166 0.0 0.0 0.00 0.03 0.03 97 1021.4
20260831120654 12 166 0.0 0.0 0.00 0.03 0.03 97 1021.4
20260831120053 12 0 0.0 0.0 0.00 0.03 0.03 97 1021.5
20260831114544 11 0 0.0 0.0 0.00 0.03 0.03 97 1021.3
20260831113228 11 166 0.0 0.0 0.00 0.03 0.03 97 1021.2
20260831113046 11 0 0.0 0.0 0.00 0.03 0.03 97 1021.3
20260831111544 11 0 0.0 0.0 0.00 0.03 0.03 96 1020.9
20260831110046 11 0 0.0 0.0 0.00 0.03 0.03 96 1020.8
20260831104544 10 0 0.0 0.0 0.00 0.03 0.03 96 1020.9
20260831103041 10 0 0.0 0.0 0.00 0.03 0.03 95 1020.8
20260831101552 10 0 0.0 0.0 0.00 0.03 0.03 95 1020.7
20260831100043 11 0 0.0 0.0 0.00 0.03 0.03 95 1020.7
20260831094544 11 0 0.0 0.0 0.00 0.03 0.03 95 1020.7
20260831093050 11 0 0.0 0.0 0.00 0.03 0.03 95 1020.5
20260831091557 11 0 0.0 0.0 0.00 0.03 0.03 95 1020.4
20260831090051 11 0 0.0 0.0 0.00 0.03 0.03 95 1020.3
20260831084547 11 0 0.0 0.0 0.00 0.03 0.03 95 1020.1
20260831083043 12 0 0.0 0.0 0.00 0.03 0.03 95 1020.0
20260831081548 12 0 0.0 0.0 0.00 0.03 0.03 95 1019.9
20260831080101 12 0 0.0 0.0 0.00 0.03 0.03 95 1019.9
20260831074545 12 0 0.0 0.0 0.00 0.03 0.03 95 1019.8
20260831073111 12 0 0.0 0.0 0.00 0.03 0.03 95 1019.6
20260831071550 13 0 0.0 0.0 0.00 0.03 0.03 95 1019.5
20260831070046 13 0 0.0 0.0 0.00 0.03 0.03 95 1019.3
20260831064547 13 0 0.0 0.0 0.00 0.03 0.03 95 1019.4
20260831063045 13 0 0.0 0.0 0.00 0.03 0.03 95 1019.3
20260831061549 14 0 0.0 0.0 0.00 0.03 0.03 95 1019.4